Weather History for South Bend, IN

Change the Weather History Date:

Thursday, July 11, 2013

  Actual Average Record
Temperature  
Mean Temperature 68 °F 73 °F  
Max Temperature 79 °F 83 °F 105 °F (1936)
Min Temperature 57 °F 63 °F 45 °F (1917)
Degree Days  
Heating Degree Days 0 0  
Month to date heating degree days 3 0  
Since 1 June heating degree days 40 44  
Since 1 July heating degree days 3 0  
Cooling Degree Days 3 8  
Month to date cooling degree days 71 88  
Year to date cooling degree days 332 309  
Since 1 June cooling degree days 236 253  
Growing Degree Days 18 (Base 50)    
Moisture  
Dew Point 55 °F    
Average Humidity 64    
Maximum Humidity 90    
Minimum Humidity 34    
Precipitation  
Precipitation 0.00 in 0.13 in 1.53 in (2006)
Month to date precipitation 1.43 1.35  
Year to date precipitation 22.16 18.86  
Snow  
Snow 0.00 in - - ()
Month to date snowfall 0.0  
Since 1 June snowfall 0.0  
Snow Depth 0.00 in    
Sea Level Pressure  
Sea Level Pressure 30.06 in    
Wind  
Wind Speed 7 mph (North)    
Max Wind Speed 17 mph    
Max Gust Speed 21 mph    
Visibility 10 miles    
Events      
T = Trace of Precipitation, MM = Missing Value Source: NWS Daily Summary

Daily Weather History Graph

Daily Weather History Graph

Search for Another Location

Airport:

Trip Planner

Search our weather history database for the weather conditions in past years. The results will help you decide how hot, cold, wet, or windy it might be!

Date:

Astronomy

Jul. 11, 2013 Rise Set
Actual Time 6:20 AM EDT 9:20 PM EDT
Civil Twilight 5:47 AM EDT 9:53 PM EDT
Nautical Twilight 5:05 AM EDT 10:35 PM EDT
Astronomical Twilight 4:15 AM EDT 11:25 PM EDT
Moon 9:42 AM EDT (7/11) 10:56 PM EDT (7/11)
Length of Visible Light 16h 06m
Length of Day
14h 59m
Waxing Crescent, 10% of the Moon is Illuminated
Jul 11
Waxing Crescent
Jul 15
First Quarter
Jul 22
Full
Jul 29
Last Quarter
Aug 6
New

Hourly Weather History & Observations

Time (EDT) Temp. Dew Point Humidity Pressure Visibility Wind Dir Wind Speed Gust Speed Precip Events Conditions
12:54 AM 60.1 °F 55.0 °F 83% 30.01 in 10.0 mi Calm Calm - N/A   Clear
1:54 AM 59.0 °F 55.0 °F 87% 30.01 in 10.0 mi Calm Calm - N/A   Clear
2:54 AM 57.9 °F 55.0 °F 90% 30.01 in 10.0 mi Calm Calm - N/A   Clear
3:54 AM 57.9 °F 55.0 °F 90% 30.03 in 10.0 mi Calm Calm - N/A   Clear
4:54 AM 57.9 °F 55.0 °F 90% 30.04 in 10.0 mi Calm Calm - N/A   Mostly Cloudy
5:54 AM 60.1 °F 55.9 °F 86% 30.04 in 10.0 mi NNW 4.6 mph - N/A   Clear
6:54 AM 60.1 °F 57.0 °F 90% 30.06 in 9.0 mi NNW 4.6 mph - N/A   Clear
7:54 AM 66.0 °F 61.0 °F 84% 30.07 in 10.0 mi North 5.8 mph - N/A   Clear
8:54 AM 69.1 °F 62.1 °F 78% 30.08 in 10.0 mi North 6.9 mph - N/A   Clear
9:54 AM 72.0 °F 59.0 °F 64% 30.09 in 10.0 mi NNE 9.2 mph - N/A   Clear
10:54 AM 73.9 °F 57.0 °F 55% 30.09 in 10.0 mi NNE 10.4 mph - N/A   Clear
11:54 AM 75.9 °F 55.0 °F 48% 30.09 in 10.0 mi North 8.1 mph - N/A   Partly Cloudy
12:54 PM 77.0 °F 52.0 °F 42% 30.09 in 10.0 mi NNE 9.2 mph - N/A   Partly Cloudy
1:54 PM 77.0 °F 54.0 °F 45% 30.09 in 10.0 mi North 12.7 mph - N/A   Mostly Cloudy
2:54 PM 79.0 °F 53.1 °F 40% 30.08 in 10.0 mi North 11.5 mph - N/A   Clear
3:54 PM 77.0 °F 54.0 °F 45% 30.09 in 10.0 mi NW 13.8 mph - N/A   Clear
4:54 PM 77.0 °F 54.0 °F 45% 30.09 in 10.0 mi NNW 12.7 mph - N/A   Clear
5:54 PM 77.0 °F 51.1 °F 40% 30.08 in 10.0 mi North 12.7 mph - N/A   Clear
6:54 PM 75.9 °F 51.1 °F 42% 30.08 in 10.0 mi NNW 11.5 mph - N/A   Clear
7:54 PM 73.0 °F 52.0 °F 48% 30.07 in 10.0 mi NW 9.2 mph - N/A   Clear
8:54 PM 69.1 °F 52.0 °F 54% 30.06 in 10.0 mi North 6.9 mph - N/A   Clear
9:54 PM 64.9 °F 54.0 °F 68% 30.06 in 10.0 mi NNW 5.8 mph - N/A   Clear
10:54 PM 63.0 °F 54.0 °F 72% 30.08 in 10.0 mi Calm Calm - N/A   Clear
11:54 PM 62.1 °F 54.0 °F 75% 30.08 in 10.0 mi Calm Calm - N/A   Clear